Home   Weather   Memphis   Past weeks

Flag for USA Past Weather in Memphis, Tennessee, USA — Yesterday and Last 2 Weeks

Now
77 °F

Overcast.


Feels Like: 79 °F
Forecast: 72 / 86 °F
Wind: 16 mph from South

Location: Memphis International Airport

Current Time: Apr 29, 2017 at 4:35:41 am

Latest Report: Apr 29, 2017 at 3:54 am


Visibility: 10 mi

Pressure: 29.80 "Hg

Humidity: 79%

Dew Point: 70 °F

Location of MemphisLocation

Past Weather in Memphis — Graph

°F

Memphis Temperature Yesterday

Maximum temperature yesterday: 84 °F (at 3:54 pm)
Minimum temperature yesterday: 58 °F (at 1:54 am)
Average temperature yesterday: 72 °F

High & Low Weather Summary for the Past Weeks

 TemperatureHumidityPressure
High86 °F (Apr 14, 2:54 pm)100% (Apr 18, 1:18 am)30.19 "Hg (Apr 18, 1:18 am)
Low49 °F (Apr 24, 2:54 am)33% (Apr 14, 2:54 pm)29.46 "Hg (Apr 26, 6:54 pm)
Average67 °F77%29.93 "Hg
* Reported Apr 14 3:54 am — Apr 29 3:35 am, Memphis, Weather by CustomWeather, © 2017

Note: Actual official high and low records may vary slightly from our data, if they occured in-between our weather recording intervals... More about our weather records

Advertising

Memphis Weather History for the Previous 24 Hours

Scroll right to see more
 ConditionsComfort  
Time TempWeatherWind HumidityBarometerVisibility
3:35 am
Sat, Apr 29
76 °FMostly cloudy.16 mph82%29.81 "Hg10 mi
1:54 am76 °FPassing clouds.20 mph82%29.79 "Hg10 mi
12:54 am77 °FClear.16 mph79%29.79 "Hg10 mi
11:54 pm
Fri, Apr 28
78 °FPassing clouds.15 mph76%29.83 "Hg10 mi
10:54 pm79 °FPartly cloudy.18 mph74%29.84 "Hg10 mi
9:54 pm79 °FClear.12 mph74%29.83 "Hg10 mi
8:54 pm80 °FPassing clouds.9 mph74%29.80 "Hg10 mi
7:54 pm81 °FPassing clouds.12 mph74%29.78 "Hg10 mi
6:54 pm82 °FPartly cloudy.9 mph74%29.77 "Hg10 mi
5:54 pm83 °FScattered clouds.10 mph72%29.77 "Hg10 mi
4:54 pm83 °FBroken clouds.18 mph72%29.76 "Hg10 mi
3:54 pm84 °FBroken clouds.18 mph67%29.75 "Hg10 mi
3:02 pm83 °FMostly cloudy.18 mph70%29.77 "Hg10 mi
2:28 pm82 °FMostly cloudy.16 mph72%29.77 "Hg10 mi
1:54 pm80 °FCloudy.16 mph76%29.77 "Hg10 mi
12:54 pm76 °FOvercast.15 mph82%29.79 "Hg10 mi
12:02 pm73 °FMostly cloudy.14 mph84%29.80 "Hg10 mi
10:54 am71 °FOvercast.13 mph84%29.80 "Hg10 mi
9:54 am69 °FMostly cloudy.8 mph81%29.80 "Hg10 mi
8:54 am67 °FBroken clouds.7 mph79%29.81 "Hg10 mi
7:54 am64 °FPassing clouds.8 mph78%29.81 "Hg10 mi
6:54 am60 °FPassing clouds.6 mph83%29.81 "Hg10 mi
5:54 am59 °FPartly sunny.6 mph84%29.80 "Hg10 mi
4:54 am59 °FPassing clouds.5 mph84%29.80 "Hg10 mi
Weather by CustomWeather, © 2017

See weather overviewHow to use our weather pages